Regional Weather Roundup
Issued by NWS Burlington, VT

Current Version | Previous Version | Text Only | Print | Product List | Glossary Off
Versions: 1 2 3 4 5 6 7 8 9 10 11 12 13 14 15 16 17 18 19 20 21 22 23 24 25 26 27 28 29 30 31 32 33 34 35 36 37 38 39 40 41 42 43 44 45 46 47 48 49 50

000
ASUS41 KBTV 301210
RWRBTV
VERMONT REGIONAL WEATHER ROUNDUP
NATIONAL WEATHER SERVICE BURLINGTON VT
700 AM EST FRI JAN 30 2015

NOTE: "FAIR" INDICATES FEW OR NO CLOUDS BELOW 12,000 FEET WITH NO
SIGNIFICANT WEATHER AND/OR OBSTRUCTIONS TO VISIBILITY.

* THESE REPORTS ARE NOT UNDER NWS QUALITY CONTROL AND/OR DO NOT
  REPORT WEATHER SUCH AS PRECIPITATION AND FOG.

VTZ001>019-301300-
_____VERMONT_____


CITY           SKY/WX    TMP DP  RH WIND       PRES   REMARKS
BURLINGTON     LGT SNOW  28  24  85 S7        29.80R FOG
6HR MIN TEMP:  27; 6HR MAX TEMP:  28; 6HR PCP:  0.10;

MONTPELIER     LGT SNOW  24  21  88 CALM      29.80S FOG
6HR MIN TEMP:  24; 6HR MAX TEMP:  24; 6HR PCP:  0.01;

MORRISVILLE    LGT SNOW N/A N/A N/A CALM      29.79F
                                      6HR PCP: TRACE;

ST. JOHNSBURY*   N/A     26  23  88 MISG      29.78F
6HR MIN TEMP:  24; 6HR MAX TEMP:  26; 6HR PCP:  0.11;

LYNDONVILLE*   LGT SNOW  25  22  89 SE6       29.78F
6HR MIN TEMP:  23; 6HR MAX TEMP:  25;

MIDDLEBURY*    LGT SNOW  28  28 100 S3        29.80R
6HR MIN TEMP:  26; 6HR MAX TEMP:  29; 6HR PCP:  0.02;

RUTLAND*       PTSUNNY   25  23  93 CALM      29.78S
6HR MIN TEMP:  25; 6HR MAX TEMP:  27;

SPRINGFIELD    CLOUDY    24  22  91 CALM      29.81F
6HR MIN TEMP:  23; 6HR MAX TEMP:  25; 6HR PCP:  0.01;

HIGHGATE*      LGT SNOW  27  26  94 S5        29.80S
6HR MIN TEMP:  27; 6HR MAX TEMP:  28;

NEWPORT*       LGT SNOW  24  22  93 CALM      29.78S
6HR MIN TEMP:  23; 6HR MAX TEMP:  24;

BENNINGTON     CLOUDY    27  26  96 CALM      29.79S
6HR MIN TEMP:  27; 6HR MAX TEMP:  30; 6HR PCP:  0.06;

SUTTON*          N/A     21 N/A N/A MISG        N/A

_____LAKE CHAMPLAIN_____


CITY           SKY/WX    TMP DP  RH WIND       PRES   REMARKS

$$

NYZ007-026>031-035-052-083-301300-
_____NORTHERN NEW YORK_____


CITY           SKY/WX    TMP DP  RH WIND       PRES   REMARKS
PLATTSBURGH    LGT SNOW  26  24  92 S3        29.79F FOG
6HR MIN TEMP:  26; 6HR MAX TEMP:  27; 6HR PCP:  0.03;

SARANAC LAKE   FLURRIES  22  20  92 SW3       29.70R
6HR MIN TEMP:  22; 6HR MAX TEMP:  25; 6HR PCP: TRACE;

MASSENA        LGT SNOW  23  21  92 W13       29.86R FOG     WCI  11
6HR MIN TEMP:  23; 6HR MAX TEMP:  29; 6HR PCP:  0.11;

OGDENSBURG*    MOSUNNY   23  19  86 NW12G17   29.88R WCI  12
WATERTOWN      LGT SNOW  25  18  74 NW12      29.91R WCI  14
6HR MIN TEMP:  25; 6HR MAX TEMP:  31; 6HR PCP:  0.01;

FT DRUM        FLURRIES  21  17  86 NW9       29.86R
6HR MIN TEMP:  21; 6HR MAX TEMP:  28; 6HR PCP: TRACE;

ALBANY         LGT SNOW  28  24  85 S8        29.84S FOG
6HR MIN TEMP:  28; 6HR MAX TEMP:  28; 6HR PCP:  0.04;

GLENS FALLS    CLOUDY    27  24  89 VRB3      29.81F
6HR MIN TEMP:  25; 6HR MAX TEMP:  28; 6HR PCP:  0.01;


$$
NHZ002-005-011-301300-
_____NEW HAMPSHIRE_____


CITY           SKY/WX    TMP DP  RH WIND       PRES   REMARKS
LEBANON        CLOUDY    27  22  81 NE5       29.80F
6HR MIN TEMP:  24; 6HR MAX TEMP:  28; 6HR PCP:  0.02;

KEENE          CLOUDY    27  25  93 CALM      29.81F
6HR MIN TEMP:  25; 6HR MAX TEMP:  27; 6HR PCP:  0.02;

MT WASHINGTON  SNOW       9   9 100 SW32        N/A  VSB 1/16WCI -15
6HR MIN TEMP:   8; 6HR MAX TEMP:  13; 6HR PCP:  0.02;

PLYMOUTH       LGT SNOW  25  25 100 CALM      29.83F
6HR MIN TEMP:  25; 6HR MAX TEMP:  26; 6HR PCP:  0.05;

WHITEFIELD     LGT SNOW  27  24  89 CALM      29.77F FOG
6HR MIN TEMP:  26; 6HR MAX TEMP:  30; 6HR PCP:  0.04;


$$

_____REGIONAL QUEBEC LOCATIONS_____


CITY           SKY/WX    TMP DP  RH WIND       PRES   REMARKS
MONTREAL       LGT SNOW  27  25  93 SW7       29.80S VSB 1
QUEBEC CITY    LGT SNOW  23  21  93 NE7       29.81F VSB 1
SHERBROOKE     LGT SNOW  25  25 100 CALM      29.77S VSB 3/4

_____REGIONAL ONTARIO LOCATIONS_____


CITY           SKY/WX    TMP DP  RH WIND       PRES   REMARKS
OTTAWA         FLURRIES  19  14  79 NW20G26   29.89R WCI   4

______KEY______
VSB  - VISIBILITY IN MILES
WCI  - WIND CHILL INDEX
HX   - HEAT INDEX
$$
NNNN


USA.gov is the U.S. government's official web portal to all federal, state and local government web resources and services.